Hourly Weather Lampeter

Today, 12 July, Sunday

Time Temperature Precipitation Wind Pressure Humidity
00:00 +9°C° 0 mm 3 mps 764 mmHg 88%
01:00 +8°C° 0 mm 3 mps 764 mmHg 89%
02:00 +8°C° 0 mm 3 mps 763 mmHg 89%
03:00 +7°C° 0 mm 4 mps 763 mmHg 90%
04:00 +8°C° 0 mm 4 mps 763 mmHg 88%
05:00 +8°C° 0 mm 4 mps 763 mmHg 85%
06:00 +10°C° 0 mm 4 mps 763 mmHg 83%
07:00 +10°C° 0 mm 5 mps 763 mmHg 79%
08:00 +13°C° 0 mm 5 mps 763 mmHg 75%
09:00 +14°C° 0 mm 5 mps 763 mmHg 72%
10:00 +15°C° 0 mm 5 mps 763 mmHg 70%
11:00 +16°C° 0 mm 5 mps 763 mmHg 68%
12:00 +18°C° 0 mm 4 mps 763 mmHg 66%
13:00 +18°C° 0 mm 4 mps 763 mmHg 67%
14:00 +18°C° 0 mm 4 mps 762 mmHg 67%
15:00 +19°C° 0 mm 4 mps 762 mmHg 67%
16:00 +17°C° 0 mm 5 mps 762 mmHg 68%
17:00 +17°C° 0 mm 5 mps 762 mmHg 70%
18:00 +16°C° 0 mm 5 mps 761 mmHg 72%
19:00 +15°C° 0 mm 4 mps 761 mmHg 74%
20:00 +14°C° 0 mm 4 mps 761 mmHg 76%
21:00 +12°C° 0 mm 3 mps 760 mmHg 78%
22:00 +12°C° 0.1 mm 3 mps 760 mmHg 82%
23:00 +12°C° 0.1 mm 3 mps 760 mmHg 85%

Tomorrow, 13 July, Monday

Time Temperature Precipitation Wind Pressure Humidity
00:00 +13°C° 0.1 mm 3 mps 760 mmHg 88%
01:00 +13°C° 0.1 mm 3 mps 759 mmHg 90%
02:00 +13°C° 0.1 mm 4 mps 759 mmHg 92%
03:00 +13°C° 0.1 mm 4 mps 758 mmHg 93%
04:00 +13°C° 0.1 mm 4 mps 758 mmHg 94%
05:00 +14°C° 0.1 mm 4 mps 758 mmHg 94%
06:00 +14°C° 0.1 mm 4 mps 757 mmHg 94%
07:00 +15°C° 0.1 mm 4 mps 757 mmHg 91%
08:00 +15°C° 0.1 mm 5 mps 757 mmHg 88%
09:00 +16°C° 0.1 mm 5 mps 757 mmHg 86%
10:00 +16°C° 0.1 mm 6 mps 757 mmHg 81%
11:00 +17°C° 0.1 mm 6 mps 756 mmHg 77%
12:00 +19°C° 0.1 mm 6 mps 756 mmHg 73%
13:00 +19°C° 0.1 mm 6 mps 756 mmHg 73%
14:00 +18°C° 0.1 mm 7 mps 756 mmHg 72%
15:00 +18°C° 0.1 mm 7 mps 756 mmHg 72%
16:00 +17°C° 0.1 mm 7 mps 756 mmHg 74%
17:00 +17°C° 0.1 mm 6 mps 755 mmHg 75%
18:00 +16°C° 0.1 mm 6 mps 755 mmHg 77%
19:00 +15°C° 0 mm 6 mps 756 mmHg 79%
20:00 +14°C° 0 mm 5 mps 756 mmHg 82%
21:00 +12°C° 0 mm 5 mps 756 mmHg 85%
22:00 +11°C° 0 mm 4 mps 756 mmHg 86%
23:00 +10°C° 0 mm 4 mps 756 mmHg 87%

Day after tomorrow, 14 July, Tuesday

Time Temperature Precipitation Wind Pressure Humidity
00:00 +10°C° 0 mm 4 mps 756 mmHg 88%
01:00 +10°C° 0 mm 4 mps 756 mmHg 88%
02:00 +10°C° 0 mm 4 mps 756 mmHg 88%
03:00 +10°C° 0 mm 4 mps 756 mmHg 88%
04:00 +10°C° 0 mm 4 mps 756 mmHg 86%
05:00 +11°C° 0 mm 4 mps 756 mmHg 84%
06:00 +11°C° 0 mm 4 mps 756 mmHg 83%
07:00 +12°C° 0 mm 4 mps 756 mmHg 79%
08:00 +13°C° 0 mm 4 mps 756 mmHg 75%
09:00 +15°C° 0 mm 4 mps 756 mmHg 71%
10:00 +15°C° 0 mm 5 mps 756 mmHg 70%
11:00 +16°C° 0 mm 5 mps 756 mmHg 68%
12:00 +17°C° 0 mm 5 mps 755 mmHg 66%
13:00 +16°C° 0.1 mm 5 mps 755 mmHg 70%
14:00 +15°C° 0.1 mm 5 mps 755 mmHg 74%
15:00 +14°C° 0.1 mm 6 mps 755 mmHg 79%
16:00 +14°C° 0.1 mm 5 mps 754 mmHg 83%
17:00 +13°C° 0.1 mm 5 mps 754 mmHg 87%
18:00 +12°C° 0.1 mm 4 mps 754 mmHg 92%
19:00 +12°C° 0.4 mm 4 mps 754 mmHg 93%
20:00 +12°C° 0.4 mm 4 mps 753 mmHg 94%
21:00 +12°C° 0.4 mm 3 mps 753 mmHg 95%
22:00 +12°C° 0.4 mm 3 mps 753 mmHg 96%
23:00 +12°C° 0.4 mm 3 mps 753 mmHg 96%

15 July, Wednesday

Time Temperature Precipitation Wind Pressure Humidity
00:00 +13°C° 0.4 mm 3 mps 752 mmHg 96%
01:00 +13°C° 0.2 mm 4 mps 752 mmHg 96%
02:00 +13°C° 0.2 mm 4 mps 752 mmHg 96%
03:00 +13°C° 0.2 mm 4 mps 752 mmHg 96%
04:00 +13°C° 0.1 mm 4 mps 752 mmHg 95%
05:00 +13°C° 0.1 mm 4 mps 752 mmHg 95%
06:00 +13°C° 0.1 mm 4 mps 752 mmHg 95%
07:00 +14°C° 0 mm 4 mps 752 mmHg 91%
08:00 +15°C° 0 mm 4 mps 753 mmHg 87%
09:00 +17°C° 0 mm 4 mps 753 mmHg 83%
10:00 +18°C° 0.1 mm 4 mps 753 mmHg 79%
11:00 +19°C° 0.1 mm 4 mps 754 mmHg 76%
12:00 +20°C° 0.1 mm 3 mps 754 mmHg 73%
13:00 +20°C° 0.2 mm 3 mps 754 mmHg 74%
14:00 +19°C° 0.2 mm 3 mps 754 mmHg 76%
15:00 +19°C° 0.2 mm 2 mps 755 mmHg 77%
16:00 +19°C° 0.2 mm 2 mps 755 mmHg 79%
17:00 +18°C° 0.2 mm 2 mps 755 mmHg 81%
18:00 +18°C° 0.2 mm 2 mps 756 mmHg 84%
19:00 +18°C° 0.1 mm 1 mps 756 mmHg 86%
20:00 +16°C° 0.1 mm 1 mps 756 mmHg 88%
21:00 +15°C° 0.1 mm 1 mps 757 mmHg 90%
22:00 +14°C° 0 mm 1 mps 757 mmHg 91%
23:00 +13°C° 0 mm 1 mps 757 mmHg 92%

16 July, Thursday

Time Temperature Precipitation Wind Pressure Humidity
00:00 +13°C° 0 mm 1 mps 758 mmHg 92%
01:00 +13°C° 0 mm 1 mps 758 mmHg 93%
02:00 +12°C° 0 mm 1 mps 758 mmHg 94%
03:00 +12°C° 0 mm 2 mps 758 mmHg 94%
04:00 +13°C° 0 mm 2 mps 758 mmHg 93%
05:00 +13°C° 0 mm 2 mps 758 mmHg 92%
06:00 +14°C° 0 mm 2 mps 758 mmHg 92%
07:00 +15°C° 0 mm 2 mps 758 mmHg 87%
08:00 +16°C° 0 mm 2 mps 759 mmHg 83%
09:00 +17°C° 0 mm 2 mps 759 mmHg 79%
10:00 +18°C° 0 mm 2 mps 759 mmHg 76%
11:00 +19°C° 0 mm 2 mps 759 mmHg 73%
12:00 +20°C° 0 mm 3 mps 759 mmHg 71%
13:00 +20°C° 0 mm 3 mps 759 mmHg 72%
14:00 +20°C° 0 mm 4 mps 759 mmHg 74%
15:00 +20°C° 0 mm 4 mps 758 mmHg 76%
16:00 +19°C° 0 mm 4 mps 758 mmHg 77%
17:00 +19°C° 0 mm 4 mps 758 mmHg 79%
18:00 +19°C° 0 mm 4 mps 758 mmHg 80%
19:00 +18°C° 0 mm 4 mps 758 mmHg 83%
20:00 +17°C° 0 mm 3 mps 758 mmHg 87%
21:00 +16°C° 0 mm 3 mps 758 mmHg 91%
22:00 +16°C° 0.1 mm 3 mps 758 mmHg 91%
23:00 +16°C° 0.1 mm 3 mps 758 mmHg 92%

17 July, Friday

Time Temperature Precipitation Wind Pressure Humidity
00:00 +16°C° 0.1 mm 3 mps 758 mmHg 93%
01:00 +15°C° 0 mm 4 mps 758 mmHg 93%
02:00 +14°C° 0 mm 4 mps 757 mmHg 93%
03:00 +14°C° 0 mm 4 mps 757 mmHg 93%
04:00 +14°C° 0 mm 4 mps 758 mmHg 92%
05:00 +14°C° 0 mm 4 mps 758 mmHg 90%
06:00 +14°C° 0 mm 4 mps 758 mmHg 89%
07:00 +15°C° 0 mm 4 mps 758 mmHg 84%
08:00 +15°C° 0 mm 5 mps 759 mmHg 79%
09:00 +16°C° 0 mm 5 mps 759 mmHg 73%
10:00 +16°C° 0 mm 5 mps 759 mmHg 70%
11:00 +18°C° 0 mm 4 mps 759 mmHg 68%
12:00 +18°C° 0 mm 4 mps 760 mmHg 65%
13:00 +18°C° 0 mm 4 mps 760 mmHg 65%
14:00 +18°C° 0 mm 4 mps 760 mmHg 65%
15:00 +19°C° 0 mm 3 mps 759 mmHg 66%
16:00 +18°C° 0 mm 3 mps 759 mmHg 69%
17:00 +17°C° 0 mm 3 mps 759 mmHg 72%
18:00 +17°C° 0 mm 3 mps 759 mmHg 75%
19:00 +14°C° 0 mm 3 mps 760 mmHg 78%
20:00 +14°C° 0 mm 2 mps 760 mmHg 82%
21:00 +13°C° 0 mm 2 mps 760 mmHg 85%
22:00 +12°C° 0 mm 2 mps 760 mmHg 85%
23:00 +12°C° 0 mm 2 mps 759 mmHg 84%
Show more